Time,TemperatureF,DewpointF,PressureIn,WindDirection,WindDirectionDegrees,WindSpeedMPH,WindSpeedGustMPH,Humidity,HourlyPrecipIn,Conditions,Clouds,dailyrainin,SoftwareType,DateUTC
2013-03-30 00:00:00,35.9,0.0,29.97,SW,228,0.0,0.0,0,0.00,,,0.00,VWS V14.01,2013-03-30 04:00:00,
2013-03-30 00:10:00,35.6,0.0,29.97,SW,228,0.0,0.0,0,0.00,,,0.00,VWS V14.01,2013-03-30 04:10:00,
2013-03-30 00:20:00,35.2,0.0,29.97,SW,228,0.0,0.0,0,0.00,,,0.00,VWS V14.01,2013-03-30 04:20:00,
2013-03-30 00:30:00,34.4,0.0,29.97,SW,228,0.0,0.0,0,0.00,,,0.00,VWS V14.01,2013-03-30 04:30:00,
2013-03-30 00:40:00,34.1,0.0,29.97,SW,228,0.0,0.0,0,0.00,,,0.00,VWS V14.01,2013-03-30 04:40:00,
2013-03-30 00:50:00,34.0,0.0,29.97,SW,228,0.0,0.0,0,0.00,,,0.00,VWS V14.01,2013-03-30 04:50:00,
2013-03-30 01:00:00,34.4,0.0,29.97,SW,228,0.0,0.0,0,0.00,,,0.00,VWS V14.01,2013-03-30 05:00:00,
2013-03-30 01:10:00,34.3,0.0,29.97,SW,228,0.0,0.0,0,0.00,,,0.00,VWS V14.01,2013-03-30 05:10:00,
2013-03-30 01:20:00,34.0,0.0,29.97,SW,228,0.0,0.0,0,0.00,,,0.00,VWS V14.01,2013-03-30 05:20:00,
2013-03-30 01:30:00,33.7,0.0,29.97,SW,228,0.0,0.0,0,0.00,,,0.00,VWS V14.01,2013-03-30 05:30:00,
2013-03-30 01:40:00,32.9,0.0,29.97,SW,228,0.0,0.0,0,0.00,,,0.00,VWS V14.01,2013-03-30 05:40:00,
2013-03-30 01:50:00,33.1,0.0,29.97,SW,228,0.0,0.0,0,0.00,,,0.00,VWS V14.01,2013-03-30 05:50:00,
2013-03-30 02:00:00,32.9,0.0,29.97,SW,228,0.0,0.0,0,0.00,,,0.00,VWS V14.01,2013-03-30 06:00:00,
2013-03-30 02:10:00,33.7,0.0,29.97,SW,229,0.0,0.0,0,0.00,,,0.00,VWS V14.01,2013-03-30 06:10:00,
2013-03-30 02:20:00,33.7,0.0,29.97,SW,229,0.0,0.0,0,0.00,,,0.00,VWS V14.01,2013-03-30 06:20:00,
2013-03-30 02:30:00,33.1,0.0,29.97,SW,229,0.0,0.0,0,0.00,,,0.00,VWS V14.01,2013-03-30 06:30:00,
2013-03-30 02:40:00,32.7,0.0,29.97,SW,229,0.0,0.0,0,0.00,,,0.00,VWS V14.01,2013-03-30 06:40:00,
2013-03-30 02:50:00,32.1,0.0,29.97,SW,229,0.0,0.0,0,0.00,,,0.00,VWS V14.01,2013-03-30 06:50:00,
2013-03-30 03:00:00,31.5,0.0,29.97,SW,229,0.0,0.0,0,0.00,,,0.00,VWS V14.01,2013-03-30 07:00:00,
2013-03-30 03:10:00,31.3,0.0,29.97,SW,229,0.0,0.0,0,0.00,,,0.00,VWS V14.01,2013-03-30 07:10:00,
2013-03-30 03:20:00,31.5,0.0,29.97,SW,229,0.0,0.0,0,0.00,,,0.00,VWS V14.01,2013-03-30 07:20:00,
2013-03-30 03:30:00,31.8,0.0,29.97,SW,229,0.0,0.0,0,0.00,,,0.00,VWS V14.01,2013-03-30 07:30:00,
2013-03-30 03:40:00,31.2,0.0,29.97,SW,228,0.0,0.0,0,0.00,,,0.00,VWS V14.01,2013-03-30 07:40:00,
2013-03-30 03:50:00,31.2,0.0,29.97,SW,229,0.0,0.0,0,0.00,,,0.00,VWS V14.01,2013-03-30 07:50:00,
2013-03-30 04:00:00,30.9,0.0,29.97,SW,229,0.0,0.0,0,0.00,,,0.00,VWS V14.01,2013-03-30 08:00:00,
2013-03-30 04:10:00,31.5,0.0,29.97,SW,229,0.0,0.0,0,0.00,,,0.00,VWS V14.01,2013-03-30 08:10:00,
2013-03-30 04:20:00,31.3,0.0,29.97,SW,229,0.0,0.0,0,0.00,,,0.00,VWS V14.01,2013-03-30 08:20:00,
2013-03-30 04:30:00,31.3,0.0,29.97,SW,228,0.0,0.0,0,0.00,,,0.00,VWS V14.01,2013-03-30 08:30:00,
2013-03-30 04:40:00,31.8,0.0,29.97,SW,229,0.0,0.0,0,0.00,,,0.00,VWS V14.01,2013-03-30 08:40:00,
2013-03-30 04:50:00,31.9,0.0,29.97,SW,228,0.0,0.0,0,0.00,,,0.00,VWS V14.01,2013-03-30 08:50:00,
2013-03-30 05:00:00,32.1,0.0,29.97,SW,228,0.0,0.0,0,0.00,,,0.00,VWS V14.01,2013-03-30 09:00:00,
2013-03-30 05:10:00,32.1,0.0,29.97,SW,228,0.0,0.0,0,0.00,,,0.00,VWS V14.01,2013-03-30 09:10:00,
2013-03-30 05:20:00,31.5,0.0,29.97,SW,228,0.0,0.0,0,0.00,,,0.00,VWS V14.01,2013-03-30 09:20:00,
2013-03-30 05:30:00,31.2,0.0,29.97,SW,228,0.0,0.0,0,0.00,,,0.00,VWS V14.01,2013-03-30 09:30:00,
2013-03-30 05:40:00,30.4,0.0,29.97,SW,228,0.0,0.0,0,0.00,,,0.00,VWS V14.01,2013-03-30 09:40:00,
2013-03-30 05:50:00,30.4,0.0,29.97,SW,227,0.0,0.0,0,0.00,,,0.00,VWS V14.01,2013-03-30 09:50:00,
2013-03-30 06:00:00,30.1,0.0,29.97,SW,228,0.0,0.0,0,0.00,,,0.00,VWS V14.01,2013-03-30 10:00:00,
2013-03-30 06:10:00,29.5,0.0,29.97,SW,227,0.0,0.0,0,0.00,,,0.00,VWS V14.01,2013-03-30 10:10:00,
2013-03-30 06:20:00,29.5,0.0,29.98,SW,228,0.0,0.0,0,0.00,,,0.00,VWS V14.01,2013-03-30 10:20:00,
2013-03-30 06:30:00,29.8,0.0,29.98,SW,227,0.0,0.0,0,0.00,,,0.00,VWS V14.01,2013-03-30 10:30:00,
2013-03-30 06:40:00,29.7,0.0,29.98,SW,228,0.0,0.0,0,0.00,,,0.00,VWS V14.01,2013-03-30 10:40:00,
2013-03-30 06:50:00,29.0,0.0,29.98,SW,228,0.0,0.0,0,0.00,,,0.00,VWS V14.01,2013-03-30 10:50:00,
2013-03-30 07:00:00,29.0,0.0,29.99,SW,227,0.0,0.0,0,0.00,,,0.00,VWS V14.01,2013-03-30 11:00:00,
2013-03-30 07:10:00,29.8,0.0,29.99,SW,228,0.0,0.0,0,0.00,,,0.00,VWS V14.01,2013-03-30 11:10:00,
2013-03-30 07:20:00,30.7,0.0,30.00,SW,227,0.0,0.0,0,0.00,,,0.00,VWS V14.01,2013-03-30 11:20:00,
2013-03-30 07:30:00,31.6,0.0,30.00,SW,227,0.0,0.0,0,0.00,,,0.00,VWS V14.01,2013-03-30 11:30:00,
2013-03-30 07:40:00,34.0,0.0,30.00,SW,229,0.0,0.0,0,0.00,,,0.00,VWS V14.01,2013-03-30 11:40:00,
2013-03-30 07:50:00,35.9,0.0,30.00,SW,214,0.0,0.0,0,0.00,,,0.00,VWS V14.01,2013-03-30 11:50:00,
2013-03-30 08:00:00,37.5,0.0,30.00,SSW,213,0.0,0.0,0,0.00,,,0.00,VWS V14.01,2013-03-30 12:00:00,
2013-03-30 08:10:00,38.6,0.0,30.00,WSW,254,0.0,0.0,0,0.00,,,0.00,VWS V14.01,2013-03-30 12:10:00,
2013-03-30 08:20:00,39.5,0.0,30.00,SW,236,0.0,0.0,0,0.00,,,0.00,VWS V14.01,2013-03-30 12:20:00,
2013-03-30 08:30:00,40.1,0.0,30.01,SW,225,0.0,0.0,0,0.00,,,0.00,VWS V14.01,2013-03-30 12:30:00,
2013-03-30 08:40:00,40.8,0.0,30.01,SW,231,0.0,0.0,0,0.00,,,0.00,VWS V14.01,2013-03-30 12:40:00,
2013-03-30 08:50:00,41.3,0.0,30.01,SW,235,0.0,0.0,0,0.00,,,0.00,VWS V14.01,2013-03-30 12:50:00,
2013-03-30 09:00:00,42.2,0.0,30.01,SW,234,0.0,0.0,0,0.00,,,0.00,VWS V14.01,2013-03-30 13:00:00,
2013-03-30 09:10:00,43.1,0.0,30.01,SW,231,0.0,0.0,0,0.00,,,0.00,VWS V14.01,2013-03-30 13:10:00,
2013-03-30 09:20:00,43.6,0.0,30.00,SW,234,0.0,0.0,0,0.00,,,0.00,VWS V14.01,2013-03-30 13:20:00,
2013-03-30 09:30:00,44.5,0.0,30.00,South,181,0.0,0.0,0,0.00,,,0.00,VWS V14.01,2013-03-30 13:30:00,
2013-03-30 09:40:00,45.4,0.0,30.00,SSW,198,0.0,0.0,0,0.00,,,0.00,VWS V14.01,2013-03-30 13:40:00,
2013-03-30 09:50:00,45.7,0.0,30.00,SW,215,0.0,0.0,0,0.00,,,0.00,VWS V14.01,2013-03-30 13:50:00,
2013-03-30 10:00:00,46.4,0.0,30.00,SW,217,0.0,0.0,0,0.00,,,0.00,VWS V14.01,2013-03-30 14:00:00,
2013-03-30 10:10:00,46.8,0.0,30.00,SSW,202,0.0,0.0,0,0.00,,,0.00,VWS V14.01,2013-03-30 14:10:00,
2013-03-30 10:20:00,47.0,0.0,30.00,WSW,240,0.0,0.0,0,0.00,,,0.00,VWS V14.01,2013-03-30 14:20:00,
2013-03-30 10:30:00,47.0,0.0,30.00,SW,223,0.0,0.0,0,0.00,,,0.00,VWS V14.01,2013-03-30 14:30:00,
2013-03-30 10:40:00,47.4,0.0,30.00,SSW,200,0.0,0.0,0,0.00,,,0.00,VWS V14.01,2013-03-30 14:40:00,
2013-03-30 10:50:00,47.7,0.0,30.00,NE,44,0.0,0.0,0,0.00,,,0.00,VWS V14.01,2013-03-30 14:50:00,
2013-03-30 11:00:00,48.3,0.0,30.00,SW,233,0.0,0.0,0,0.00,,,0.00,VWS V14.01,2013-03-30 15:00:00,
2013-03-30 11:10:00,48.6,0.0,30.00,SSW,204,0.0,0.0,0,0.00,,,0.00,VWS V14.01,2013-03-30 15:10:00,
2013-03-30 11:20:00,48.8,0.0,30.00,SSW,213,0.0,0.0,0,0.00,,,0.00,VWS V14.01,2013-03-30 15:20:00,
2013-03-30 11:30:00,49.2,0.0,30.00,West,268,0.0,0.0,0,0.00,,,0.00,VWS V14.01,2013-03-30 15:30:00,
2013-03-30 11:40:00,49.5,0.0,30.00,South,190,0.0,0.0,0,0.00,,,0.00,VWS V14.01,2013-03-30 15:40:00,
2013-03-30 11:50:00,49.9,0.0,29.99,SSW,201,0.0,0.0,0,0.00,,,0.00,VWS V14.01,2013-03-30 15:50:00,
2013-03-30 12:00:00,50.2,0.0,29.99,South,173,0.0,0.0,0,0.00,,,0.00,VWS V14.01,2013-03-30 16:00:00,
2013-03-30 12:10:00,50.4,0.0,29.99,SW,221,0.0,0.0,0,0.00,,,0.00,VWS V14.01,2013-03-30 16:10:00,
2013-03-30 12:20:00,50.8,0.0,29.98,SSW,207,0.0,0.0,0,0.00,,,0.00,VWS V14.01,2013-03-30 16:20:00,
2013-03-30 12:30:00,51.3,0.0,29.98,SW,232,0.0,0.0,0,0.00,,,0.00,VWS V14.01,2013-03-30 16:30:00,
2013-03-30 12:40:00,51.1,0.0,29.98,SSW,204,0.0,0.0,0,0.00,,,0.00,VWS V14.01,2013-03-30 16:40:00,
2013-03-30 12:50:00,51.3,0.0,29.97,East,84,0.0,0.0,0,0.00,,,0.00,VWS V14.01,2013-03-30 16:50:00,
2013-03-30 13:00:00,51.3,0.0,29.98,East,84,0.0,0.0,0,0.00,,,0.00,VWS V14.01,2013-03-30 17:00:00,
2013-03-30 13:10:00,53.4,25.0,29.98,ESE,107,1.0,10.0,33,0.00,,,0.00,VWS V14.01,2013-03-30 17:10:00,
2013-03-30 13:19:00,53.0,24.7,29.97,West,274,2.0,11.0,33,0.00,,,0.00,VWS V14.01,2013-03-30 17:19:00,
2013-03-30 13:29:00,52.3,24.1,29.97,East,98,1.0,10.0,33,0.00,,,0.00,VWS V14.01,2013-03-30 17:29:00,
2013-03-30 13:39:00,52.8,25.9,29.97,WSW,237,3.0,11.0,35,0.00,,,0.00,VWS V14.01,2013-03-30 17:39:00,
2013-03-30 13:49:00,52.9,25.3,29.95,SSW,198,2.0,13.0,34,0.00,,,0.00,VWS V14.01,2013-03-30 17:49:00,
2013-03-30 13:59:00,53.3,23.5,29.95,SW,234,4.0,12.0,31,0.00,,,0.00,VWS V14.01,2013-03-30 17:59:00,
2013-03-30 14:09:00,53.1,24.0,29.95,SW,232,4.0,10.0,32,0.00,,,0.00,VWS V14.01,2013-03-30 18:09:00,
2013-03-30 14:19:00,53.7,23.0,29.95,SW,225,6.0,14.0,30,0.00,,,0.00,VWS V14.01,2013-03-30 18:19:00,
2013-03-30 14:29:00,53.6,22.9,29.94,SW,227,11.0,14.0,30,0.00,,,0.00,VWS V14.01,2013-03-30 18:29:00,
2013-03-30 14:39:00,54.3,24.3,29.94,SW,215,1.0,12.0,31,0.00,,,0.00,VWS V14.01,2013-03-30 18:39:00,
2013-03-30 14:49:00,54.6,23.8,29.94,WNW,289,1.0,8.0,30,0.00,,,0.00,VWS V14.01,2013-03-30 18:49:00,
2013-03-30 14:59:00,54.9,22.4,29.94,WSW,238,1.0,13.0,28,0.00,,,0.00,VWS V14.01,2013-03-30 18:59:00,
2013-03-30 15:09:00,55.0,22.5,29.94,NE,46,1.0,14.0,28,0.00,,,0.00,VWS V14.01,2013-03-30 19:09:00,
2013-03-30 15:19:00,55.2,21.8,29.94,SW,217,5.0,16.0,27,0.00,,,0.00,VWS V14.01,2013-03-30 19:19:00,
2013-03-30 15:29:00,55.7,21.4,29.93,SSW,211,2.0,15.0,26,0.00,,,0.00,VWS V14.01,2013-03-30 19:29:00,
2013-03-30 15:39:00,55.8,21.5,29.93,SW,227,2.0,12.0,26,0.00,,,0.00,VWS V14.01,2013-03-30 19:39:00,
2013-03-30 15:49:00,56.3,21.0,29.93,ENE,78,4.0,14.0,25,0.00,,,0.00,VWS V14.01,2013-03-30 19:49:00,
2013-03-30 15:59:00,56.0,20.7,29.93,SW,230,9.0,10.0,25,0.00,,,0.00,VWS V14.01,2013-03-30 19:59:00,
2013-03-30 16:09:00,56.6,22.1,29.93,West,271,1.0,12.0,26,0.00,,,0.00,VWS V14.01,2013-03-30 20:09:00,
2013-03-30 16:19:00,57.1,20.7,29.93,WSW,250,2.0,7.0,24,0.00,,,0.00,VWS V14.01,2013-03-30 20:19:00,
2013-03-30 16:29:00,57.4,21.9,29.92,SW,229,2.0,10.0,25,0.00,,,0.00,VWS V14.01,2013-03-30 20:29:00,
2013-03-30 16:39:00,57.2,21.7,29.92,SSW,205,3.0,11.0,25,0.00,,,0.00,VWS V14.01,2013-03-30 20:39:00,
2013-03-30 16:49:00,57.3,21.8,29.92,SW,234,7.0,7.0,25,0.00,,,0.00,VWS V14.01,2013-03-30 20:49:00,
2013-03-30 16:59:00,57.7,22.1,29.92,NE,51,1.0,10.0,25,0.00,,,0.00,VWS V14.01,2013-03-30 20:59:00,
2013-03-30 17:09:00,57.4,21.9,29.92,SW,230,3.0,9.0,25,0.00,,,0.00,VWS V14.01,2013-03-30 21:09:00,
2013-03-30 17:19:00,58.1,27.6,29.93,SSW,199,2.0,9.0,31,0.00,,,0.00,VWS V14.01,2013-03-30 21:19:00,
2013-03-30 17:29:00,58.0,25.1,29.93,SW,225,3.0,7.0,28,0.00,,,0.00,VWS V14.01,2013-03-30 21:29:00,
2013-03-30 17:39:00,58.5,25.5,29.93,SW,225,3.0,8.0,28,0.00,,,0.00,VWS V14.01,2013-03-30 21:39:00,
2013-03-30 17:49:00,58.6,26.5,29.93,WSW,246,1.0,10.0,29,0.00,,,0.00,VWS V14.01,2013-03-30 21:49:00,
2013-03-30 17:59:00,59.4,30.3,29.93,SW,236,1.0,3.0,33,0.00,,,0.00,VWS V14.01,2013-03-30 21:59:00,
2013-03-30 18:09:00,57.1,30.4,29.93,West,271,2.0,8.0,36,0.00,,,0.00,VWS V14.01,2013-03-30 22:09:00,
2013-03-30 18:19:00,55.4,32.1,29.94,SSE,159,1.0,5.0,41,0.00,,,0.00,VWS V14.01,2013-03-30 22:19:00,
2013-03-30 18:29:00,53.1,31.2,29.94,WNW,292,2.0,4.0,43,0.00,,,0.00,VWS V14.01,2013-03-30 22:29:00,
2013-03-30 18:39:00,50.9,31.9,29.94,WSW,252,3.0,7.0,48,0.00,,,0.00,VWS V14.01,2013-03-30 22:39:00,
2013-03-30 18:49:00,49.2,31.9,29.95,NW,320,1.0,7.0,51,0.00,,,0.00,VWS V14.01,2013-03-30 22:49:00,
2013-03-30 18:59:00,48.3,32.0,29.95,WSW,249,1.0,4.0,53,0.00,,,0.00,VWS V14.01,2013-03-30 22:59:00,
2013-03-30 19:09:00,47.4,32.1,29.95,West,265,6.0,6.0,55,0.00,,,0.00,VWS V14.01,2013-03-30 23:09:00,
2013-03-30 19:19:00,46.8,32.8,29.95,WNW,301,1.0,6.0,58,0.00,,,0.00,VWS V14.01,2013-03-30 23:19:00,
2013-03-30 19:29:00,46.3,32.8,29.96,West,267,1.0,9.0,59,0.00,,,0.00,VWS V14.01,2013-03-30 23:29:00,
2013-03-30 19:39:00,45.8,32.3,29.96,West,261,2.0,5.0,59,0.00,,,0.00,VWS V14.01,2013-03-30 23:39:00,
2013-03-30 19:49:00,45.4,32.8,29.96,NW,320,2.0,5.0,61,0.00,,,0.00,VWS V14.01,2013-03-30 23:49:00,
2013-03-30 19:59:00,45.0,32.8,29.97,West,263,2.0,4.0,62,0.00,,,0.00,VWS V14.01,2013-03-30 23:59:00,
2013-03-30 20:09:00,44.6,32.8,29.97,West,280,0.0,4.0,63,0.00,,,0.00,VWS V14.01,2013-03-31 00:09:00,
2013-03-30 20:19:00,44.1,33.1,29.97,WNW,288,0.0,4.0,65,0.00,,,0.00,VWS V14.01,2013-03-31 00:19:00,
2013-03-30 20:29:00,43.8,33.2,29.97,WSW,244,0.0,4.0,66,0.00,,,0.00,VWS V14.01,2013-03-31 00:29:00,
2013-03-30 20:39:00,43.5,33.3,29.97,WSW,250,1.0,2.0,67,0.00,,,0.00,VWS V14.01,2013-03-31 00:39:00,
2013-03-30 20:49:00,43.2,33.0,29.98,West,270,0.0,3.0,67,0.00,,,0.00,VWS V14.01,2013-03-31 00:49:00,
2013-03-30 20:59:00,42.9,33.4,29.98,WSW,257,1.0,4.0,69,0.00,,,0.00,VWS V14.01,2013-03-31 00:59:00,
2013-03-30 21:09:00,42.9,33.4,29.98,West,261,1.0,3.0,69,0.00,,,0.00,VWS V14.01,2013-03-31 01:09:00,
2013-03-30 21:19:00,42.6,33.5,29.98,West,261,0.0,2.0,70,0.00,,,0.00,VWS V14.01,2013-03-31 01:19:00,
2013-03-30 21:29:00,42.4,33.7,29.99,WSW,251,0.0,3.0,71,0.00,,,0.00,VWS V14.01,2013-03-31 01:29:00,
2013-03-30 21:39:00,41.9,33.2,29.99,WSW,251,1.0,2.0,71,0.00,,,0.00,VWS V14.01,2013-03-31 01:39:00,
2013-03-30 21:49:00,41.3,32.6,29.99,WSW,251,0.0,1.0,71,0.00,,,0.00,VWS V14.01,2013-03-31 01:49:00,
2013-03-30 21:59:00,40.7,32.7,29.98,WSW,251,0.0,1.0,73,0.00,,,0.00,VWS V14.01,2013-03-31 01:59:00,
2013-03-30 22:09:00,40.3,32.7,29.98,WSW,251,0.0,1.0,74,0.00,,,0.00,VWS V14.01,2013-03-31 02:09:00,
2013-03-30 22:19:00,40.1,33.2,29.99,WSW,246,0.0,2.0,76,0.00,,,0.00,VWS V14.01,2013-03-31 02:19:00,
2013-03-30 22:29:00,39.7,32.4,29.99,WSW,246,0.0,1.0,75,0.00,,,0.00,VWS V14.01,2013-03-31 02:29:00,
2013-03-30 22:39:00,38.9,32.3,29.99,WSW,246,0.0,1.0,77,0.00,,,0.00,VWS V14.01,2013-03-31 02:39:00,
2013-03-30 22:49:00,38.6,32.7,29.99,WSW,246,0.0,1.0,79,0.00,,,0.00,VWS V14.01,2013-03-31 02:49:00,
2013-03-30 22:59:00,38.4,32.8,29.98,WSW,246,0.0,1.0,80,0.00,,,0.00,VWS V14.01,2013-03-31 02:59:00,
2013-03-30 23:09:00,38.2,32.6,29.98,WSW,246,0.0,1.0,80,0.00,,,0.00,VWS V14.01,2013-03-31 03:09:00,
2013-03-30 23:19:00,38.1,33.4,29.98,WSW,246,0.0,1.0,83,0.00,,,0.00,VWS V14.01,2013-03-31 03:19:00,
2013-03-30 23:29:00,37.9,32.6,29.99,WSW,246,0.0,1.0,81,0.00,,,0.00,VWS V14.01,2013-03-31 03:29:00,
2013-03-30 23:39:00,37.4,32.4,29.99,WSW,246,0.0,1.0,82,0.00,,,0.00,VWS V14.01,2013-03-31 03:39:00,
2013-03-30 23:49:00,37.0,32.3,30.00,WSW,246,0.0,1.0,83,0.00,,,0.00,VWS V14.01,2013-03-31 03:49:00,